Dewpoint
43 44 44 45 46 46 46 47 48 48 48 49 50 51 52 54 54 55 55 55 55 55 55 55 55 56 56 56 56 56 56 56 57 58 58 58 58 58 58 58 57 57 57 57 57 56 56 56 55 54 53 53 51 50 48 48 48 49 50 50 51 52 53 53 53 53 53 53 52
44 44 45 47 47 46 45 45 46 47 47 48 48 49 50 51 53 53 54 55 55 55 55 55 55 55 55 55 55 56 57 58 59 59 59 59 59 58 57 56 56 55 55 54 54 55 55 54 54 53 53 52 51 50 49 48 49 49 50 50 50 50 51 51 52 52 52 51 50
44 44 44 45 45 45 45 45 45 45 46 47 47 48 49 51 52 53 53 54 54 55 55 55 55 55 55 55 55 56 57 60 59 59 59 59 58 57 57 56 55 54 54 53 53 53 53 53 53 53 52 51 51 50 49 49 49 50 50 49 49 48 48 48 49 48 48 48 47
44 44 44 44 44 44 44 45 45 45 46 47 47 48 49 51 52 53 53 53 54 55 55 55 55 55 54 54 55 56 58 59 59 59 58 58 57 57 56 55 54 53 53 53 52 51 51 51 51 51 50 49 50 50 50 49 49 49 49 49 48 48 48 47 47 47 46 46 45
45 45 45 45 45 45 45 45 45 45 45 45 46 46 47 48 49 50 51 52 53 54 55 56 55 55 55 55 57 57 58 58 58 57 57 57 56 56 55 54 54 53 53 52 52 52 51 50 50 50 49 50 50 51 50 49 49 48 48 48 48 48 47 47 46 45 45 45 45
46 46 46 46 46 46 46 46 46 45 45 45 45 45 45 46 47 47 48 48 50 52 53 55 56 56 56 57 58 58 57 57 57 57 56 55 55 54 54 54 53 52 51 51 51 51 51 50 51 51 50 50 50 50 50 49 48 48 48 47 47 47 46 46 45 45 44 44 44
46 46 46 46 46 47 47 47 46 46 46 46 46 46 46 46 47 47 48 48 48 49 50 52 54 56 57 58 58 58 57 57 56 55 54 53 53 53 52 52 52 51 51 51 51 51 51 51 51 51 50 50 49 49 49 48 48 47 46 45 45 45 45 44 44 44 44 44 43
46 46 47 47 47 47 47 47 47 47 47 47 47 48 48 49 50 51 51 51 51 51 51 51 54 56 57 57 57 57 57 56 55 53 52 51 51 51 51 51 51 50 50 50 50 51 51 51 50 49 49 48 48 48 48 48 47 46 45 44 44 44 44 44 44 44 44 43 42
46 47 47 47 48 48 48 48 48 48 48 48 49 50 51 52 53 53 53 53 53 53 53 53 55 56 56 55 55 55 54 54 53 52 51 50 49 49 49 50 50 50 50 50 51 51 50 50 49 48 48 47 47 47 47 46 45 45 44 44 44 43 43 43 43 43 42 42 41
46 47 47 48 49 49 49 49 49 49 50 50 51 52 52 52 52 53 53 53 54 54 54 53 53 53 53 53 53 52 52 52 51 50 50 49 49 48 48 49 49 50 50 50 50 50 50 49 48 48 47 46 46 46 46 45 44 44 43 43 43 42 41 41 41 41 41 40 39
47 47 48 48 49 49 49 49 49 49 50 50 50 51 51 51 50 51 51 52 52 53 52 52 51 51 51 51 50 50 50 50 50 49 49 49 49 48 48 49 49 49 50 50 50 49 49 48 47 46 45 45 45 45 45 44 44 43 43 42 42 41 41 41 40 40 39 39 38
47 47 47 48 48 48 48 49 48 48 49 49 49 49 49 49 49 49 50 50 50 50 50 49 49 49 49 49 49 49 49 49 49 49 49 49 48 48 48 48 48 48 48 49 49 49 48 47 46 45 44 44 44 44 44 44 43 42 42 41 41 41 40 40 39 39 38 38 37
46 46 46 46 47 47 48 48 48 48 48 48 48 48 48 48 48 48 48 48 48 48 48 48 48 48 48 48 48 48 48 48 48 48 48 48 48 47 47 47 47 47 47 47 47 47 46 46 45 44 44 44 43 43 42 42 42 41 41 40 40 40 39 39 39 38 38 37 37
45 45 45 45 46 46 46 46 47 47 47 47 47 48 48 48 47 47 47 47 47 47 47 47 47 47 47 47 47 47 47 47 47 47 46 46 45 45 45 45 44 45 45 45 45 45 45 45 44 44 44 44 43 42 41 41 40 40 40 40 39 39 39 39 38 38 37 37 37
44 44 44 44 45 45 45 45 46 46 46 46 46 46 47 47 46 46 46 47 46 47 47 47 47 47 46 46 46 46 45 45 45 44 44 44 44 43 43 44 44 44 44 44 44 44 43 43 43 42 42 42 42 41 41 40 40 40 40 39 39 39 39 39 38 37 37 37 37
43 44 44 44 44 44 44 44 44 44 44 44 45 45 45 45 45 45 46 46 46 46 46 46 46 46 46 45 45 44 44 43 43 43 42 42 42 42 42 42 42 42 42 42 42 42 42 42 41 41 41 41 41 40 40 39 40 39 39 39 39 39 38 38 38 37 36 37 37
43 43 43 43 43 43 43 43 43 43 43 44 44 44 44 44 44 44 45 45 45 45 45 44 44 44 44 44 44 43 42 42 42 41 41 41 41 41 41 41 41 41 41 41 41 41 41 41 40 40 40 40 40 40 39 39 39 39 39 39 38 38 38 38 37 37 36 37 37
42 42 42 42 42 42 42 42 42 42 42 43 43 43 43 43 44 44 44 44 44 43 43 43 43 43 43 42 42 42 41 41 41 41 41 41 41 40 40 40 40 40 40 40 40 40 40 40 40 39 39 39 39 39 39 38 38 38 38 38 38 38 38 38 37 37 37 37 37
41 41 41 41 41 41 41 41 41 41 41 41 41 42 42 42 42 42 42 42 42 42 42 42 42 42 41 41 41 41 41 40 40 40 40 40 40 40 40 39 39 39 39 39 39 39 39 39 39 39 39 39 39 39 39 38 38 38 38 38 38 38 38 38 38 38 38 37 38
40 41 41 41 40 40 40 40 40 40 40 40 40 40 40 41 41 41 41 41 41 41 41 41 41 41 41 40 40 40 40 40 40 39 39 39 39 39 39 39 39 39 39 39 39 39 39 39 39 39 39 39 39 39 39 39 38 38 38 38 38 38 38 38 38 38 38 38 38
40 40 40 40 40 40 39 39 39 39 39 39 39 39 39 40 40 40 40 40 40 40 40 40 40 40 40 40 40 40 40 40 39 39 39 39 39 39 39 39 39 39 39 39 39 38 38 38 38 38 39 39 39 39 39 39 38 38 38 38 38 38 38 38 37 37 37 37 37
39 39 39 40 40 39 39 39 39 39 39 39 39 39 39 39 39 39 39 39 40 40 40 40 39 39 39 39 39 39 39 40 39 39 39 40 40 40 40 39 39 39 39 39 38 38 38 38 38 38 38 39 38 38 38 38 37 37 37 36 36 36 36 36 36 36 36 35 35
39 39 39 39 39 39 39 39 39 38 38 38 38 38 38 38 39 39 39 39 39 39 39 39 39 39 39 39 39 39 39 39 39 40 40 40 40 40 40 39 39 39 39 39 38 38 38 38 38 38 38 38 38 37 37 36 36 36 35 35 35 35 35 35 35 35 35 35 35
39 39 39 39 39 39 39 38 38 38 38 38 38 38 38 38 38 38 39 39 39 39 39 39 39 39 39 39 39 39 39 39 39 39 39 39 39 39 39 39 39 39 39 39 39 39 38 38 38 38 37 37 37 36 36 36 35 35 35 34 34 34 34 34 34 34 34 34 35
38 38 38 38 38 38 38 38 38 38 38 38 38 38 38 38 38 38 39 39 39 39 39 39 39 39 39 39 39 39 39 39 39 39 39 39 39 39 39 39 40 40 40 40 40 40 39 39 38 38 37 36 36 36 35 35 35 34 34 33 33 33 32 32 32 32 33 33 34
38 38 38 38 38 38 38 38 38 38 38 38 38 38 38 38 38 38 38 38 39 39 39 39 39 39 39 39 39 39 39 39 39 39 39 39 39 39 39 39 40 40 40 40 40 40 40 39 39 38 37 36 36 35 35 34 33 33 33 32 32 32 32 32 32 32 32 32 32
38 38 37 37 37 37 37 37 37 37 37 38 38 38 38 38 38 38 38 38 38 38 39 39 39 39 39 39 39 39 39 39 39 39 39 39 39 39 39 40 40 40 40 41 40 40 40 39 39 38 37 35 35 35 34 34 33 32 32 32 32 32 32 31 31 31 31 31 32
38 38 37 37 37 37 37 37 37 37 37 37 37 38 38 38 38 38 38 38 38 38 39 39 39 39 39 39 39 39 39 39 39 39 39 39 39 39 39 40 40 40 40 40 40 40 39 39 39 38 37 35 35 34 33 33 32 32 32 32 32 32 31 31 31 31 31 31 31
39 38 38 36 36 37 37 37 37 37 37 37 37 37 38 38 38 38 38 38 38 39 39 39 39 39 38 38 38 38 38 38 38 39 39 39 39 39 39 39 40 40 40 40 39 39 39 39 38 38 37 36 34 33 33 32 32 32 32 32 31 31 30 30 30 30 30 30 30
39 39 38 37 36 36 37 37 37 37 37 37 37 37 37 37 38 38 38 38 38 39 39 39 39 39 39 39 39 39 39 39 39 38 38 38 39 39 39 39 39 39 39 39 39 39 39 38 38 37 36 35 34 33 32 32 31 31 31 30 30 30 30 30 30 30 30 30 29
39 39 39 38 37 36 37 37 37 37 37 37 37 37 37 38 38 38 38 38 39 39 39 39 39 39 39 39 38 38 38 38 38 38 37 37 38 38 38 39 39 39 39 39 39 39 38 38 37 36 35 35 33 32 31 31 30 30 30 30 30 30 30 30 30 30 30 30 30
39 39 39 38 38 37 37 37 37 37 38 38 38 38 38 38 39 39 39 39 39 39 39 39 39 38 38 37 37 37 37 37 37 36 36 36 37 37 38 38 38 39 39 39 39 38 38 37 36 36 35 34 33 31 30 30 30 30 30 30 30 30 30 30 30 30 30 30 30
39 38 38 38 38 38 38 38 38 38 38 38 38 38 39 39 39 39 39 39 39 39 39 38 37 37 36 36 36 36 36 36 36 36 36 36 36 37 37 38 38 39 39 38 38 38 37 37 36 35 35 34 32 30 29 29 29 29 29 29 29 29 29 30 30 30 30 30 31
38 38 38 38 38 38 38 38 38 38 38 38 38 38 38 38 38 38 39 39 39 39 38 37 37 36 36 36 35 35 35 35 35 35 35 35 35 36 36 37 38 38 38 38 37 37 36 36 35 35 34 33 31 29 28 28 28 28 28 28 28 28 29 29 30 30 30 30 30
38 38 38 37 37 37 37 37 37 37 37 37 37 37 37 37 37 37 37 38 38 37 37 37 36 36 35 35 35 35 35 35 35 35 35 35 35 35 35 35 36 37 37 37 37 36 36 35 34 34 33 31 29 28 27 27 27 27 27 27 27 28 28 28 29 29 28 28 28
38 37 37 37 37 37 37 37 37 36 36 36 36 36 36 36 36 36 36 36 36 36 36 36 35 35 35 35 34 34 34 33 34 34 34 33 33 33 33 33 34 35 35 36 35 35 35 34 33 32 31 30 28 27 26 26 26 26 26 26 26 26 26 26 26 25 25 24 24
37 37 37 36 36 36 36 36 36 36 36 36 36 35 35 35 35 35 35 35 35 35 35 35 35 34 34 34 33 33 32 31 31 31 31 31 30 30 30 30 30 32 33 34 34 33 32 32 31 30 29 27 26 25 25 24 24 24 24 24 24 24 24 24 23 23 23 23 25
37 36 36 36 36 36 36 35 35 35 35 35 35 35 35 35 35 35 35 34 33 33 34 33 34 33 33 33 32 32 31 30 30 30 29 29 29 29 28 28 28 30 32 32 32 31 30 30 29 28 27 26 24 22 22 22 22 22 22 22 23 23 23 23 23 23 23 24 26
36 36 35 35 35 35 35 35 35 35 35 35 35 35 35 35 35 35 35 34 33 33 33 33 33 33 33 33 32 32 31 30 30 30 29 28 29 30 29 27 27 29 31 31 31 30 30 29 28 27 26 25 22 21 21 21 21 21 21 21 21 22 22 22 22 22 22 23 25
35 35 34 34 34 34 34 34 34 34 34 34 34 34 35 35 35 35 35 34 33 33 32 33 33 33 33 32 32 32 31 30 30 30 30 29 30 30 30 28 27 28 30 30 30 29 29 28 27 26 26 24 22 21 21 21 21 21 21 21 21 21 21 21 21 21 21 22 23
33 33 33 33 33 33 33 33 33 33 34 34 34 34 35 35 35 35 34 34 34 33 33 33 32 32 32 32 31 31 32 32 32 31 30 31 31 31 30 28 26 27 28 29 29 29 28 28 27 26 26 25 22 21 21 21 21 21 21 21 21 21 21 21 21 21 21 21 21